Location: Igon
(43.1667°N, 0.2333°W)
Time: 20:50:17
(UTC+00:00)

USA 238 - Pass Details

Date: 29 November 2020
Orbit: 997 x 1215 km, 63.4° (Epoch: 11 January)

Event Time Altitude Azimuth Distance (km) Brightness Sun altitude
Exits shadow 04:45:56 40° 230° (SW) 1,685 4.4 -25.9°
Drops below altitude 10° 04:52:06 10° 178° (S) 3,140 6.2 -24.8°
Sets 04:55:02 0° 172° (S) 4,111 7.0 -24.2°
